Regional Weather Roundup
Issued by NWS

Home | Current Version | Previous Version | Graphics & Text | Print | Product List | Glossary On
Versions: 1 2 3 4 5 6 7 8 9 10 11 12 13 14 15 16 17 18 19 20 21 22 23 24 25 26 27 28 29 30 31 32 33 34 35 36 37 38 39 40 41 42 43 44 45 46 47 48 49 50
000
ASUS43 KIND 062059
RWRIN

WEATHER ROUNDUP FOR INDIANA
NATIONAL WEATHER SERVICE INDIANAPOLIS IN
500 PM EDT MON JUL 06 2015

NOTE: "FAIR" INDICATES FEW OR NO CLOUDS BELOW 12,000 FEET WITH NO
SIGNIFICANT WEATHER AND/OR OBSTRUCTIONS TO VISIBILITY.

* - STATION DOES NOT REPORT WEATHER SUCH AS PRECIPITATION OR FOG.

+ - STATION NOT QUALITY CONTROLLED BY THE NATIONAL WEATHER SERVICE.
    USE DATA WITH CAUTION...ESPECIALLY DEWPOINT AND RELATIVE
    HUMIDITY OBSERVATIONS.

INZ001>003-010>013-019-020-062200-
NORTHWEST INDIANA

CITY           SKY/WX    TMP DP  RH WIND       PRES   REMARKS
GARY /AIRPORT/ CLOUDY   N/A N/A N/A S6        29.92F
RENSSELAER +   PTSUNNY   82  72  69 S10G16    29.95F

$$

LMZ046-743>745-062200-
SOUTHERN LAKE MICHIGAN

STATION/POSITION TIME  TEMP    WIND        PRES    WAVE
                       AIR SEA DIR/SP/G            HT
                 (UTC) (F)     (DEG/KT/KT) (MB)    (FT)
BURNS HARBOR     2000   84     180/ 11/ 20 1013.5F
MICHIGAN CITY    2000   82     180/ 14/ 19   N/A
5NW MICH CITY    2000   77 67  200/ 10/ 14   N/A     1

$$

INZ004-005-014>016-021>024-062200-
NORTH CENTRAL INDIANA

CITY           SKY/WX    TMP DP  RH WIND       PRES   REMARKS
ELKHART        SUNNY     84  64  51 S10       29.96F
GOSHEN         MOSUNNY   83  66  56 SW16      29.96F
SOUTH BEND     PTSUNNY   85  67  54 SW16      29.95F

$$

INZ006>009-017-018-025>027-062200-
NORTHEAST INDIANA

CITY           SKY/WX    TMP DP  RH WIND       PRES   REMARKS
ANGOLA *+        N/A     84  66  54 SW12      29.99S
FORT WAYNE     PTSUNNY   85  65  51 SW15      29.99F

$$

INZ028-029-035-036-043>045-051>053-062200-
WEST CENTRAL INDIANA

CITY           SKY/WX    TMP DP  RH WIND       PRES   REMARKS
CRAWFORDSVL +  CLOUDY    81  65  58 S9        29.99S
GREENCASTLE +  MOSUNNY   82  64  54 S3        30.00F
LAFAYETTE      CLOUDY    83  70  64 S9        29.96F
TERRE HAUTE    CLOUDY    85  71  63 S13       29.98F

$$

INZ030>032-037>040-046>048-054>057-064-065-062200-
CENTRAL INDIANA

CITY           SKY/WX    TMP DP  RH WIND       PRES   REMARKS
GREENWOOD *+   PTSUNNY   82  66  57 S9        30.01F
INDIANAPOLIS   MOSUNNY   85  61  44 SW9G20    29.99F
-EAGLE CREEK   MOSUNNY   84  66  54 SW8       29.99F
KOKOMO *+      MOSUNNY   84  64  51 S14       29.97F
MT COMFORT *+  MOSUNNY   84  57  39 S10G16    30.01F
SHELBYVILLE    MOSUNNY   85  68  56 SW13      30.00F

$$

INZ033-034-041-042-049-050-058-059-062200-
EAST CENTRAL INDIANA

CITY           SKY/WX    TMP DP  RH WIND       PRES   REMARKS
MUNCIE         MOSUNNY   84  65  52 S12G20    30.00F

$$

INZ060-061-067>069-081>083-085>088-062200-
SOUTHWEST INDIANA

CITY           SKY/WX    TMP DP  RH WIND       PRES   REMARKS
EVANSVILLE     MOSUNNY   87  72  60 SW13      30.01F
HUNTINGBURG *+ PTSUNNY   84  72  65 S10       30.01F

$$

INZ062-063-066-070>080-084-089>092-062200-
SOUTH CENTRAL AND SOUTHEAST INDIANA

CITY           SKY/WX    TMP DP  RH WIND       PRES   REMARKS
BLOOMINGTON    MOSUNNY   84  70  62 S14       30.01F
MADISON *+     SUNNY     86  64  48 SW8       30.05F
SEYMOUR +      MOSUNNY   86  68  54 S12       30.01F

$$



USA.gov is the U.S. government's official web portal to all federal, state and local government web resources and services.